Карточка аэропорта UHPP

Внимание!
Информация на этой странице в стадии наполнения.
Если вы не увидели какой-то информации, или заметили неточность - пожалуйста сообщите нам!
Спасибо!
Команда RU-STAFF
Название аэропортаЕлизово
Название аэропорта (англ.)Yelizovo
Превышение131 ft. (39.9 m.)
Координаты53°10.2', 158°27.6'
Высота перехода2400m
Эшелон переходаQFE > 759 mmHg - FL090; 729 mmHg < QFE < 759 mmHg - FL100; QFE < 729 mmHg - FL110
Коды ответчика6630-6657
Зона ОрВДМагадан РПИ (UHMM)
Данные METARUHPP 241200Z 05003MPS 7000 FEW050 M00/M03 Q1016 R16R/CLRD60 NOSIG RMK QFE759/1012
Проноз погоды (TAF)UHPP 241044Z 2412/2518 02003G12MPS 9999 BKN020 TEMPO 2412/2423 18005MPS 0700 DZ FG VV002 FM242300 14005G15MPS 4000 -SHRA BKN010 OVC017CB TEMPO 2423/2518 1000 SHRA BR VV003
NOTAMshow/hide NOTAM
AWOS   TABLE

Информация о ВПП

ВПП Длина ВПП (м.) Покрытие Курс ВПП Частота ILS
34L2500Бетон344108.7
16R2500Бетон164109.9

Диспетчерские позиции

Позывной Наименование органа УВД Частота
UHPP_TWRПетропавловск - Старт118.100
UHPP_R_APPПетропавловск - Круг119.400
UHPP_ATISПетропавловск - АТИС126.800
UHPP_GNDПетропавловск - Руление127.000



Спутниковое изображение